This demonstration page uses our WeatherBlox Daily Observations layout. Learn more.

Left ArrowRight Arrow

Hourly Observations for August 18, 2022

Temp ( °F °C ) Dew Point ( °F °C ) Humidity (%) Winds ( mph kmh ) Pressure ( in mb ) Visibility ( mi km ) Precip ( " mm )
12:52 am 00:52 Clear 65 18.3 63 17.2 93 93 Calm 30.06 1018 7 11 0.00 0.00
1:52 am 01:52 Clear 65 18.3 63 17.2 93 93 Calm 30.06 1018 9 14 0.00 0.00
2:52 am 02:52 Clear 64 17.8 62 16.7 93 93 Calm 30.04 1017 10 16 0.00 0.00
3:52 am 03:52 Clear with Mist and Fog 63 17.2 62 16.7 97 97 Calm 30.05 1018 5 8 0.00 0.00
4:52 am 04:52 Clear with Mist and Fog 63 17.2 62 16.7 97 97 Calm 30.04 1017 6 10 0.00 0.00
5:48 am 05:48 Clear with Mist and Fog 63 17 63 17 100 100 Calm 30.05 1018 1 2 0.00 0.00
5:52 am 05:52 Clear with Mist and Fog 62 16.7 61 16.1 96 96 Calm 30.04 1017 2 3 0.00 0.00
5:59 am 05:59 Clear 62 16.7 61 16.1 96 96 Calm 30.05 1018 10 16 0.00 0.00
6:36 am 06:36 Partly Cloudy with Mist and Fog 63 17.2 62 16.7 97 97 Calm 30.06 1018 5 8 0.00 0.00
6:52 am 06:52 Sunny with Mist and Fog 62 16.7 61 16.1 96 96 Calm 30.05 1018 5 8 0.00 0.00
7:52 am 07:52 Sunny with Mist and Fog 67 19.4 65 18.3 93 93 Calm 30.04 1017 4 6 0.00 0.00
8:52 am 08:52 Sunny 71 21.7 65 18.3 81 81 Calm 30.04 1017 10 16 0.00 0.00
9:52 am 09:52 Sunny 75 23.9 62 16.7 64 64 E 5 7 30.05 1018 10 16 0.00 0.00
10:52 am 10:52 Mostly Sunny 77 25 62 16.7 60 60 Calm 30.05 1018 10 16 0.00 0.00
11:52 am 11:52 Partly Cloudy 79 26.1 60 15.6 52 52 Calm 30.04 1017 10 16 0.00 0.00
12:52 pm 12:52 Partly Cloudy 79 26.1 60 15.6 52 52 VRB 3 6 30.04 1017 10 16 0.00 0.00
1:52 pm 13:52 Mostly Sunny 78 25.6 60 15.6 54 54 SSE 6 9 30.02 1017 10 16 0.00 0.00
2:52 pm 14:52 Sunny 80 26.7 58 14.4 47 47 Calm 30.00 1016 10 16 0.00 0.00
3:52 pm 15:52 Mostly Cloudy 82 27.8 60 15.6 47 47 ENE 6 9 29.98 1015 10 16 0.00 0.00
4:52 pm 16:52 Partly Cloudy 82 27.8 58 14.4 44 44 Calm 29.97 1015 10 16 0.00 0.00
5:52 pm 17:52 Partly Cloudy 81 27.2 59 15 47 47 ESE 6 9 29.96 1015 10 16 0.00 0.00
6:52 pm 18:52 Sunny 79 26.1 60 15.6 52 52 S 3 6 29.94 1014 10 16 0.00 0.00
7:52 pm 19:52 Sunny 78 25.6 59 15 52 52 Calm 29.93 1014 10 16 0.00 0.00
8:52 pm 20:52 Clear 69 20.6 63 17.2 81 81 SSE 3 6 29.94 1014 10 16 0.00 0.00
9:52 pm 21:52 Clear 69 20.6 62 16.7 78 78 Calm 29.96 1015 10 16 0.00 0.00
10:52 pm 22:52 Clear 67 19.4 62 16.7 84 84 S 3 6 29.96 1014 10 16 0.00 0.00
11:52 pm 23:52 Clear 67 19.4 61 16.1 81 81 SSE 6 9 29.95 1014 10 16 0.00 0.00

Powered by AerisWeather